Ruidoso, NM

6:39 AM MDT on April 23, 2018 (GMT -0600)
Sierra Blanca Regional

Weather History for KSRR - January, 2014

Change the Weather History Date:

Thursday, January 30, 2014

  Actual Average Record
Temperature  
Mean Temperature 48 °F -  
Max Temperature 62 °F 47 °F 62 °F (2014)
Min Temperature 35 °F 28 °F 17 °F (2013)
Degree Days  
Heating Degree Days 16    
Moisture  
Dew Point 18 °F    
Average Humidity 28    
Maximum Humidity 38    
Minimum Humidity 19    
Precipitation  
Precipitation 0.00 in - - ()
Sea Level Pressure  
Sea Level Pressure 29.89 in    
Wind  
Wind Speed 14 mph (West)    
Max Wind Speed 37 mph    
Max Gust Speed 53 mph    
Visibility 10 miles    
Events      
Averages and records for this station are not official NWS values.
T = Trace of Precipitation, MM = Missing Value Source: NWS Daily Summary

Daily Weather History Graph

Daily Weather History Graph

Search for Another Location

Airport or City:

Astronomy

Jan. 30, 2014 Rise Set
Actual Time 6:59 AM MST 5:31 PM MST
Civil Twilight 6:33 AM MST 5:57 PM MST
Nautical Twilight 6:03 AM MST 6:27 PM MST
Astronomical Twilight 5:34 AM MST 6:57 PM MST
Moon 6:29 AM MST (1/30) 5:43 PM MST (1/30)
Length of Visible Light 11h 24m
Length of Day
10h 32m
Waning Crescent, 0% of the Moon is Illuminated
Jan 30
Waning Crescent
Jan 30
New
Feb 6
First Quarter
Feb 14
Full
Feb 22
Last Quarter

Hourly Weather History & Observations

Time (MST) Temp. Windchill Dew Point Humidity Pressure Visibility Wind Dir Wind Speed Gust Speed Precip Events Conditions
12:15 AM 39.2 °F 32.0 °F 5.0 °F 24% 29.95 in 10.0 mi WSW 11.5 mph - N/A   Clear
12:35 AM 35.6 °F 32.8 °F 3.2 °F 26% 29.94 in 10.0 mi NW 3.5 mph - N/A   Clear
12:55 AM 35.6 °F 31.7 °F 6.8 °F 30% 29.93 in 10.0 mi NNW 4.6 mph - N/A   Clear
1:15 AM 35.6 °F 29.2 °F 8.6 °F 33% 29.94 in 10.0 mi WNW 8.1 mph - N/A   Clear
1:35 AM 41.0 °F 39.0 °F 14.0 °F 33% 29.93 in 10.0 mi WSW 3.5 mph - N/A   Clear
1:55 AM 39.2 °F 35.0 °F 14.0 °F 36% 29.91 in 10.0 mi North 5.8 mph - N/A   Clear
2:15 AM 37.4 °F 28.9 °F 14.0 °F 38% 29.89 in 10.0 mi West 13.8 mph 23.0 mph N/A   Clear
2:35 AM 48.2 °F - 17.6 °F 30% 29.88 in 10.0 mi West 17.3 mph 23.0 mph N/A   Clear
2:55 AM 50.0 °F - 19.4 °F 30% 29.87 in 10.0 mi West 16.1 mph 29.9 mph N/A   Clear
3:15 AM 44.6 °F 41.4 °F 14.0 °F 29% 29.88 in 10.0 mi NNE 5.8 mph - N/A   Clear
3:35 AM 44.6 °F 40.7 °F 15.8 °F 31% 29.89 in 10.0 mi North 6.9 mph - N/A   Clear
3:55 AM 42.8 °F 38.6 °F 17.6 °F 36% 29.88 in 10.0 mi WNW 6.9 mph - N/A   Clear
4:15 AM 42.8 °F 38.0 °F 15.8 °F 34% 29.88 in 10.0 mi NNW 8.1 mph - N/A   Clear
4:35 AM 41.0 °F 35.8 °F 15.8 °F 36% 29.88 in 10.0 mi NW 8.1 mph - N/A   Clear
4:55 AM 39.2 °F 33.6 °F 14.0 °F 36% 29.87 in 10.0 mi WNW 8.1 mph - N/A   Clear
5:15 AM 41.0 °F 35.8 °F 14.0 °F 33% 29.87 in 10.0 mi WNW 8.1 mph - N/A   Clear
5:35 AM 41.0 °F 38.0 °F 14.0 °F 33% 29.87 in 10.0 mi WNW 4.6 mph - N/A   Clear
5:55 AM 44.6 °F 40.7 °F 15.8 °F 31% 29.88 in 10.0 mi SW 6.9 mph - N/A   Clear
6:15 AM 44.6 °F 42.2 °F 15.8 °F 31% 29.88 in 10.0 mi NNE 4.6 mph - N/A   Clear
6:35 AM 44.6 °F 41.4 °F 15.8 °F 31% 29.89 in 10.0 mi NE 5.8 mph - N/A   Clear
6:55 AM 41.0 °F 38.0 °F 15.8 °F 36% 29.89 in 10.0 mi NNE 4.6 mph - N/A   Clear
7:15 AM 41.0 °F 35.8 °F 15.8 °F 36% 29.89 in 10.0 mi NE 8.1 mph - N/A   Clear
7:35 AM 42.8 °F 37.5 °F 15.8 °F 34% 29.89 in 10.0 mi North 9.2 mph 18.4 mph N/A   Clear
7:55 AM 42.8 °F 38.0 °F 15.8 °F 34% 29.91 in 10.0 mi NE 8.1 mph - N/A   Clear
8:15 AM 44.6 °F 42.2 °F 17.6 °F 34% 29.90 in 10.0 mi SW 4.6 mph - N/A   Clear
8:35 AM 50.0 °F - 21.2 °F 32% 29.90 in 10.0 mi WNW 21.9 mph 31.1 mph N/A   Clear
8:55 AM 51.8 °F - 19.4 °F 28% 29.90 in 10.0 mi West 15.0 mph 24.2 mph N/A   Clear
9:15 AM 57.2 °F - 21.2 °F 25% 29.89 in 10.0 mi WNW 24.2 mph 46.0 mph N/A   Clear
9:35 AM 57.2 °F - 21.2 °F 25% 29.90 in 10.0 mi WNW 19.6 mph 36.8 mph N/A   Clear
9:55 AM 59.0 °F - 23.0 °F 25% 29.89 in 10.0 mi WNW 23.0 mph 39.1 mph N/A   Clear
10:15 AM 60.8 °F - 23.0 °F 23% 29.88 in 10.0 mi WNW 29.9 mph 42.6 mph N/A   Clear
10:35 AM 59.0 °F - 23.0 °F 25% 29.88 in 10.0 mi WNW 32.2 mph 49.5 mph N/A   Clear
10:55 AM 60.8 °F - 23.0 °F 23% 29.89 in 10.0 mi WNW 20.7 mph 40.3 mph N/A   Clear
11:15 AM 60.8 °F - 21.2 °F 22% 29.88 in 10.0 mi WNW 29.9 mph 43.7 mph N/A   Clear
11:35 AM 59.0 °F - 21.2 °F 23% 29.88 in 10.0 mi WNW 29.9 mph 42.6 mph N/A   Clear
11:55 AM 59.0 °F - 19.4 °F 22% 29.88 in 10.0 mi WNW 36.8 mph 50.6 mph N/A   Clear
12:15 PM 60.8 °F - 19.4 °F 20% 29.87 in 10.0 mi WNW 23.0 mph 42.6 mph N/A   Clear
12:35 PM 62.6 °F - 19.4 °F 19% 29.86 in 10.0 mi WNW 28.8 mph 43.7 mph N/A   Clear
12:55 PM 60.8 °F - 21.2 °F 22% 29.86 in 10.0 mi WNW 25.3 mph 41.4 mph N/A   Clear
1:15 PM 60.8 °F - 21.2 °F 22% 29.86 in 10.0 mi West 27.6 mph 52.9 mph N/A   Clear
1:35 PM 62.6 °F - 21.2 °F 20% 29.87 in 10.0 mi WNW 24.2 mph 38.0 mph N/A   Clear
1:55 PM 60.8 °F - 21.2 °F 22% 29.88 in 10.0 mi WNW 19.6 mph 35.7 mph N/A   Clear
2:15 PM 62.6 °F - 23.0 °F 22% 29.88 in 10.0 mi West 18.4 mph 32.2 mph N/A   Clear
2:35 PM 60.8 °F - 23.0 °F 23% 29.88 in 10.0 mi West 25.3 mph 38.0 mph N/A   Clear
2:55 PM 59.0 °F - 23.0 °F 25% 29.89 in 10.0 mi WNW 16.1 mph 33.4 mph N/A   Clear
3:15 PM 59.0 °F - 23.0 °F 25% 29.89 in 10.0 mi WNW 11.5 mph 27.6 mph N/A   Clear
3:35 PM 59.0 °F - 19.4 °F 22% 29.88 in 10.0 mi West 19.6 mph 24.2 mph N/A   Clear
3:55 PM 59.0 °F - 21.2 °F 23% 29.88 in 10.0 mi WSW 10.4 mph - N/A   Clear
4:15 PM 57.2 °F - 21.2 °F 25% 29.88 in 10.0 mi SSW 13.8 mph 21.9 mph N/A   Clear
4:35 PM 55.4 °F - 19.4 °F 25% 29.88 in 10.0 mi SW 17.3 mph 24.2 mph N/A   Clear
4:55 PM 53.6 °F - 19.4 °F 26% 29.88 in 10.0 mi SW 19.6 mph 24.2 mph N/A   Clear
5:15 PM 53.6 °F - 19.4 °F 26% 29.88 in 10.0 mi WSW 9.2 mph - N/A   Clear
5:35 PM 53.6 °F - 19.4 °F 26% 29.89 in 10.0 mi WSW 19.6 mph 25.3 mph N/A   Clear
5:55 PM 53.6 °F - 17.6 °F 24% 29.89 in 10.0 mi WSW 20.7 mph 28.8 mph N/A   Clear
6:15 PM 51.8 °F - 17.6 °F 26% 29.88 in 10.0 mi WSW 21.9 mph 31.1 mph N/A   Clear
6:35 PM 53.6 °F - 17.6 °F 24% 29.87 in 10.0 mi WSW 28.8 mph 39.1 mph N/A   Clear
6:55 PM 53.6 °F - 17.6 °F 24% 29.88 in 10.0 mi WSW 28.8 mph 43.7 mph N/A   Clear
7:15 PM 53.6 °F - 17.6 °F 24% 29.88 in 10.0 mi WSW 32.2 mph 46.0 mph N/A   Clear
7:35 PM 53.6 °F - 17.6 °F 24% 29.88 in 10.0 mi WSW 34.5 mph 41.4 mph N/A   Clear
7:55 PM 51.8 °F - 17.6 °F 26% 29.89 in 10.0 mi WSW 32.2 mph 43.7 mph N/A   Clear
8:15 PM 51.8 °F - 17.6 °F 26% 29.91 in 10.0 mi WSW 25.3 mph 36.8 mph N/A   Clear
8:35 PM 51.8 °F - 19.4 °F 28% 29.91 in 10.0 mi WSW 20.7 mph 32.2 mph N/A   Clear
8:55 PM 53.6 °F - 19.4 °F 26% 29.91 in 10.0 mi WSW 23.0 mph 34.5 mph N/A   Clear
9:15 PM 53.6 °F - 21.2 °F 28% 29.91 in 10.0 mi West 23.0 mph 34.5 mph N/A   Clear
9:35 PM 53.6 °F - 23.0 °F 30% 29.92 in 10.0 mi West 17.3 mph 26.5 mph N/A   Clear
9:55 PM 51.8 °F - 23.0 °F 33% 29.91 in 10.0 mi West 15.0 mph 23.0 mph N/A   Clear
10:15 PM 53.6 °F - 23.0 °F 30% 29.89 in 10.0 mi West 20.7 mph 32.2 mph N/A   Clear
10:35 PM 53.6 °F - 23.0 °F 30% 29.88 in 10.0 mi West 20.7 mph 36.8 mph N/A   Clear
10:55 PM 53.6 °F - 21.2 °F 28% 29.88 in 10.0 mi WSW 24.2 mph 33.4 mph N/A   Clear
11:15 PM 53.6 °F - 21.2 °F 28% 29.86 in 10.0 mi WSW 29.9 mph 40.3 mph N/A   Clear
11:35 PM 51.8 °F - 19.4 °F 28% 29.86 in 10.0 mi WSW 28.8 mph 38.0 mph N/A   Clear
11:55 PM 51.8 °F - 19.4 °F 28% 29.86 in 10.0 mi West 28.8 mph 38.0 mph N/A   Clear